Time,TemperatureF,DewpointF,PressureIn,WindDirection,WindDirectionDegrees,WindSpeedMPH,WindSpeedGustMPH,Humidity,HourlyPrecipIn,Conditions,Clouds,dailyrainin,SolarRadiationWatts/m^2,SoftwareType,DateUTC
2013-07-08 00:11:00,96.0,51.0,-100.00,SSW,192,5.0,8.0,22,-99.99,,,0.00,0.000000,,2013-07-08 07:11:00,
2013-07-08 00:22:00,96.0,51.0,-100.00,SSW,192,5.0,8.0,22,-99.99,,,0.00,0.000000,,2013-07-08 07:22:00,
2013-07-08 00:34:00,96.0,51.0,-100.00,SSW,192,5.0,8.0,22,-99.99,,,0.00,0.000000,,2013-07-08 07:34:00,
2013-07-08 00:44:00,96.0,51.0,-100.00,SSW,192,5.0,8.0,22,-99.99,,,0.00,0.000000,,2013-07-08 07:44:00,
2013-07-08 01:11:00,94.0,52.0,-100.00,South,181,6.0,8.0,24,0.00,,,0.00,0.000000,,2013-07-08 08:11:00,
2013-07-08 01:22:00,94.0,52.0,-100.00,South,181,6.0,8.0,24,0.00,,,0.00,0.000000,,2013-07-08 08:22:00,
2013-07-08 01:33:00,94.0,52.0,-100.00,South,181,6.0,8.0,24,0.00,,,0.00,0.000000,,2013-07-08 08:33:00,
2013-07-08 01:42:00,94.0,52.0,-100.00,South,181,6.0,8.0,24,0.00,,,0.00,0.000000,,2013-07-08 08:42:00,
2013-07-08 02:11:00,93.0,48.0,-100.00,South,170,7.0,9.0,22,0.00,,,-99.99,0.000000,,2013-07-08 09:11:00,
2013-07-08 02:22:00,93.0,48.0,-100.00,South,170,7.0,9.0,22,0.00,,,-99.99,0.000000,,2013-07-08 09:22:00,
2013-07-08 02:34:00,93.0,48.0,-100.00,South,170,7.0,9.0,22,0.00,,,-99.99,0.000000,,2013-07-08 09:34:00,
2013-07-08 02:43:00,93.0,48.0,-100.00,South,170,7.0,9.0,22,0.00,,,-99.99,0.000000,,2013-07-08 09:43:00,
2013-07-08 03:11:00,91.0,51.0,-100.00,SSW,198,5.0,9.0,26,0.00,,,0.00,0.000000,,2013-07-08 10:11:00,
2013-07-08 03:22:00,91.0,51.0,-100.00,SSW,198,5.0,9.0,26,0.00,,,0.00,0.000000,,2013-07-08 10:22:00,
2013-07-08 03:34:00,91.0,51.0,-100.00,SSW,198,5.0,9.0,26,0.00,,,0.00,0.000000,,2013-07-08 10:34:00,
2013-07-08 03:43:00,91.0,51.0,-100.00,SSW,198,5.0,9.0,26,0.00,,,0.00,0.000000,,2013-07-08 10:43:00,
2013-07-08 04:22:00,86.0,52.0,-100.00,South,182,6.0,7.0,31,0.00,,,0.00,0.000000,,2013-07-08 11:22:00,
2013-07-08 04:33:00,86.0,52.0,-100.00,South,182,6.0,7.0,31,0.00,,,0.00,0.000000,,2013-07-08 11:33:00,
2013-07-08 04:43:00,86.0,52.0,-100.00,South,182,6.0,7.0,31,0.00,,,0.00,0.000000,,2013-07-08 11:43:00,
2013-07-08 05:11:00,84.0,54.0,-100.00,SSE,150,4.0,7.0,36,0.00,,,0.00,0.000000,,2013-07-08 12:11:00,
2013-07-08 05:22:00,84.0,54.0,-100.00,SSE,150,4.0,7.0,36,0.00,,,0.00,0.000000,,2013-07-08 12:22:00,
2013-07-08 05:33:00,84.0,54.0,-100.00,SSE,150,4.0,7.0,36,0.00,,,0.00,0.000000,,2013-07-08 12:33:00,
2013-07-08 05:43:00,84.0,54.0,-100.00,SSE,150,4.0,7.0,36,0.00,,,0.00,0.000000,,2013-07-08 12:43:00,
2013-07-08 06:33:00,82.0,56.0,-100.00,SE,132,3.0,6.0,41,0.00,,,0.00,1.000000,,2013-07-08 13:33:00,
2013-07-08 06:42:00,82.0,56.0,-100.00,SE,132,3.0,6.0,41,0.00,,,0.00,1.000000,,2013-07-08 13:42:00,
2013-07-08 07:12:00,83.0,56.0,-100.00,SSW,212,2.0,7.0,40,0.00,,,0.00,53.000000,,2013-07-08 14:12:00,
2013-07-08 07:22:00,83.0,56.0,-100.00,SSW,212,2.0,7.0,40,0.00,,,0.00,53.000000,,2013-07-08 14:22:00,
2013-07-08 07:33:00,83.0,56.0,-100.00,SSW,212,2.0,7.0,40,0.00,,,0.00,53.000000,,2013-07-08 14:33:00,
2013-07-08 07:43:00,83.0,56.0,-100.00,SSW,212,2.0,7.0,40,0.00,,,0.00,53.000000,,2013-07-08 14:43:00,
2013-07-08 08:22:00,87.0,60.0,-100.00,SE,145,2.0,4.0,41,-99.99,,,0.00,138.000000,,2013-07-08 15:22:00,
2013-07-08 09:22:00,98.0,60.0,-100.00,SSE,147,5.0,7.0,29,-99.99,,,0.00,514.000000,,2013-07-08 16:22:00,
2013-07-08 09:33:00,98.0,60.0,-100.00,SSE,147,5.0,7.0,29,-99.99,,,0.00,514.000000,,2013-07-08 16:33:00,
2013-07-08 11:27:00,109.0,43.0,-100.00,ESE,112,3.0,7.0,11,0.00,,,0.00,905.000000,,2013-07-08 18:27:00,
2013-07-08 11:45:00,109.0,43.0,-100.00,ESE,112,3.0,7.0,11,0.00,,,0.00,905.000000,,2013-07-08 18:45:00,
2013-07-08 12:16:00,111.0,47.0,-100.00,South,181,4.0,8.0,12,0.00,,,0.00,1019.000000,,2013-07-08 19:16:00,
2013-07-08 12:26:00,111.0,47.0,-100.00,South,181,4.0,8.0,12,0.00,,,0.00,1019.000000,,2013-07-08 19:26:00,
2013-07-08 12:44:00,111.0,47.0,-100.00,South,181,4.0,8.0,12,0.00,,,0.00,1019.000000,,2013-07-08 19:44:00,
2013-07-08 13:16:00,112.0,45.0,-100.00,SSE,154,5.0,10.0,11,0.00,,,-99.99,1069.000000,,2013-07-08 20:16:00,
2013-07-08 13:25:00,112.0,45.0,-100.00,SSE,154,5.0,10.0,11,0.00,,,-99.99,1069.000000,,2013-07-08 20:25:00,
2013-07-08 13:44:00,112.0,45.0,-100.00,SSE,154,5.0,10.0,11,0.00,,,-99.99,1069.000000,,2013-07-08 20:44:00,
2013-07-08 14:16:00,114.0,49.0,-100.00,SE,133,5.0,10.0,12,0.00,,,0.00,1058.000000,,2013-07-08 21:16:00,
2013-07-08 14:26:00,114.0,49.0,-100.00,SE,133,5.0,10.0,12,0.00,,,0.00,1058.000000,,2013-07-08 21:26:00,
2013-07-08 14:36:00,114.0,49.0,-100.00,SE,133,5.0,10.0,12,0.00,,,0.00,1058.000000,,2013-07-08 21:36:00,
2013-07-08 14:44:00,114.0,49.0,-100.00,SE,133,5.0,10.0,12,0.00,,,0.00,1058.000000,,2013-07-08 21:44:00,
2013-07-08 15:25:00,115.0,45.0,-100.00,SSW,196,5.0,12.0,10,0.00,,,0.00,982.000000,,2013-07-08 22:25:00,
2013-07-08 15:46:00,115.0,45.0,-100.00,SSW,196,5.0,12.0,10,0.00,,,0.00,982.000000,,2013-07-08 22:46:00,
2013-07-08 16:45:00,115.0,50.0,-100.00,SSW,195,6.0,12.0,12,0.00,,,0.00,848.000000,,2013-07-08 23:45:00,
2013-07-08 17:17:00,114.0,53.0,-100.00,SSW,198,7.0,14.0,14,0.00,,,0.00,655.000000,,2013-07-09 00:17:00,
2013-07-08 17:37:00,114.0,53.0,-100.00,SSW,198,7.0,14.0,14,0.00,,,0.00,655.000000,,2013-07-09 00:37:00,
2013-07-08 17:45:00,114.0,53.0,-100.00,SSW,198,7.0,14.0,14,0.00,,,0.00,655.000000,,2013-07-09 00:45:00,
2013-07-08 18:34:00,113.0,50.0,-100.00,SSW,209,6.0,12.0,13,0.00,,,0.00,436.000000,,2013-07-09 01:34:00,
2013-07-08 18:46:00,113.0,50.0,-100.00,SSW,209,6.0,12.0,13,0.00,,,0.00,436.000000,,2013-07-09 01:46:00,
2013-07-08 19:24:00,111.0,53.0,-100.00,SW,216,6.0,11.0,15,0.00,,,0.00,224.000000,,2013-07-09 02:24:00,
2013-07-08 19:37:00,111.0,53.0,-100.00,SW,216,6.0,11.0,15,0.00,,,0.00,224.000000,,2013-07-09 02:37:00,
2013-07-08 19:45:00,111.0,53.0,-100.00,SW,216,6.0,11.0,15,0.00,,,0.00,224.000000,,2013-07-09 02:45:00,
2013-07-08 20:17:00,106.0,50.0,-100.00,SW,236,6.0,11.0,16,0.00,,,0.00,61.000000,,2013-07-09 03:17:00,
2013-07-08 21:11:00,100.0,53.0,-100.00,SSW,205,4.0,11.0,21,0.00,,,0.00,3.000000,,2013-07-09 04:11:00,
2013-07-08 21:22:00,100.0,53.0,-100.00,SSW,205,4.0,11.0,21,0.00,,,0.00,3.000000,,2013-07-09 04:22:00,
2013-07-08 21:33:00,100.0,53.0,-100.00,SSW,205,4.0,11.0,21,0.00,,,0.00,3.000000,,2013-07-09 04:33:00,
2013-07-08 21:42:00,100.0,53.0,-100.00,SSW,205,4.0,11.0,21,0.00,,,0.00,3.000000,,2013-07-09 04:42:00,
2013-07-08 23:11:00,93.0,68.0,-100.00,SSE,153,4.0,8.0,44,0.00,,,0.00,0.000000,,2013-07-09 06:11:00,
2013-07-08 23:22:00,93.0,68.0,-100.00,SSE,153,4.0,8.0,44,0.00,,,0.00,0.000000,,2013-07-09 06:22:00,
2013-07-08 23:43:00,93.0,68.0,-100.00,SSE,153,4.0,8.0,44,0.00,,,0.00,0.000000,,2013-07-09 06:43:00,